www.pogodaiklimat.ru

Погода и климат >> Архив погоды >> Боливия >> Puerto Suarez


ПОГОДА в Puerto Suarez

  • Прогноз погоды в Puerto Suarez
  • Монитор погоды в Puerto Suarez
  • Климат города

АРХИВ ПОГОДЫ в Puerto Suarez

Время (UTC), дата Ветер
(напр.,м/с)
 
Видим.   Явления Облачность Т
(С)
Тd
(С)
f
(%)
Тe
(С)
Тes
(С)
Комфортность P
(гПа)
Po
(гПа)
Тmin
(С)
Tmax
(С)
R
(мм)
R24
(мм)
S
(см)
12 11.08 штиль 0 30 км ясно +14.0 +10.6 80 +14 +19 1015.9 1002.2 +9.8
15 11.08 штиль 0 30 км ясно +24.5 +14.1 52 +27 +47 жарко 1017.8 1002.6
18 11.08 В 2 30 км ясно +27.0 +15.7 50 +30 +41 душно 1014.3 999.8
21 11.08 штиль 0 30 км ясно +26.0 +15.5 52 +29 +29 душно 1012.6 998.0 +28.0
12 12.08 штиль 0 30 км ясно +19.0 +14.3 74 +20 +25 1014.3 999.8 +12.2
15 12.08 В 5 30 км ясно +26.5 +17.0 56 +30 +38 душно 1014.6 1000.0
18 12.08 В 4 30 км ясно +29.0 +19.0 55 +34 +42 очень
душно
1011.5 997.0
21 12.08 В 3 30 км ясно +27.0 +19.0 62 +32 +33 очень
душно
1010.6 996.0 +30.0
12 13.08 В 4 30 км ясно +23.0 +18.7 77 +29 +31 очень
душно
1011.7 999.2 +16.0
15 13.08 В 7 30 км ясно +28.0 +17.9 54 +32 +37 душно 1010.6 998.0
18 13.08 В 6 30 км ясно +31.0 +17.0 43 +35 +39 очень
душно
1007.5 995.0
21 13.08 В 2 30 км ясно +28.0 +19.5 60 +34 +34 очень
душно
1005.6 993.0 +31.4
12 14.08 В 2 20 км 3/3 700 м
[Sc]
+23.0 +18.7 77 +29 +32 очень
душно
1012.6 998.0 +17.2
15 14.08 В 3 20 км 8/3 600 м
[Cu hum Ci]
+27.4 +16.5 51 +31 +38 душно 1013.7 998.2
18 14.08 штиль 0 30 км 9/3 600 м
[Cu hum Ac und]
+33.0 +20.2 47 +39 +44 очень
душно
1011.2 995.8
21 14.08 штиль 0 30 км 9/4 600 м
[Cu med, cong Ac und]
+29.0 +20.4 60 +36 +36 очень
душно
1010.2 994.8 +33.3
12 15.08 ЮЗ 4 7000 м дымка 10/6 300 м
[Sc As op]
+18.0 +16.4 90 +18 +18 1018.2 1003.0 +15.0
15 15.08 ЮЗ 4 7000 м дым 10/10 300 м
[Sc]
+20.0 +16.9 82 +23 +23 комфорт 1018.9 1003.8
18 15.08 ЮЗ 6 7000 м дым 10/8 450 м
[Sc Ac trans]
+23.0 +17.1 69 +28 +28 душно 1016.4 1001.8
21 15.08 ЮЗ 3 8000 м дым 8/3 500 м
[Sc Ci]
+21.0 +18.4 85 +26 +26 душно 1015.6 1001.0 +24.4
12 16.08 Ю 3 8000 м дым 4/4 500 м
[Sc]
+18.0 +13.4 74 +18 +20 1017.6 1003.9 +13.4
15 16.08 штиль 0 8000 м дым ясно +26.2 +19.0 65 +31 +52 опасность
солнечного
удара
1018.0 1003.9
18 16.08 В 3 8000 м дым ясно +29.0 +19.6 57 +35 +45 очень
душно
1016.5 1001.3
21 16.08 штиль 0 8000 м дым 3/3 700 м
[Cu hum]
+28.3 +18.3 55 +33 +34 очень
душно
1015.4 1000.0 +29.3
15 17.08 В 3 8000 м дым ясно +26.7 +18.6 61 +32 +44 очень
душно
1018.4 1003.2
18 17.08 В 3 8000 м дым ясно +31.0 +18.1 46 +35 +46 очень
душно
1014.4 999.9
21 17.08 В 2 20 км ясно +29.0 +19.1 55 +34 +35 очень
душно
1012.6 998.0 +31.5

 

Местоположение метеостанции Puerto Suarez (Боливия): широта -18.98 долгота -57.81 высота над уровнем моря 134 м.

В архиве по умолчанию представлена погода в Puerto Suarez за последнюю неделю. Архивные данные за месяц целиком и за предыдущие месяцы, начиная с января 2011 года, Вы можете получить, выбрав интересующий диапазон дат из раскрывающегося списка и нажав кнопку "Ввод!".


*Определитесь, кто Вы:
робот инопланетянин человек

Внимание! Время в таблицах - всемирное. Для получения местного времени необходимо прибавить поправку, которая в Puerto Suarez равна -4 ч.

Смотрите также архив погоды в соседних городах и на ближайших метеорологических станциях:

Погода в Corumba (Бразилия) (19 км)
Погода в Nhumirim (Бразилия) (125 км)
Погода в Miranda (Бразилия) (214 км)
Погода в Robore (Боливия) (219 км)
Погода в Aquidauana (Бразилия) (270 км)
Погода в San Matias (Боливия) (301 км)
Погода в Caceres (Бразилия) (326 км)
Погода в Coxim (Бразилия) (328 км)
Погода в San Jose De Chiquitos (Боливия) (335 км)
Погода в Sao Gabriel do Oeste (Бразилия) (346 км)

Пояснения к столбцам:

Ветер - указаны скорость ветра в м/с - средняя за 10 мин, порывы в срок и между сроками (в фигурных скобках) и направление, откуда дует ветер: С - северный, СВ - северо-восточный, В - восточный, ЮВ - юго-восточный, Ю - южный, ЮЗ - юго-западный, З - западный, СЗ - северо-западный.
Видимость - горизонтальная дальность видимости в метрах или километрах. При видимости от 1 до 10 км при отсутствии осадков обычно наблюдается дымка, при ухудшении видимости до 1 км и менее - туман. В сухую погоду видимость может ухудшаться дымом, пылью или мглою.
Явления - указаны атмосферные явления, наблюдавшиеся в срок или в последний час перед сроком; фигурными скобками обозначены явления, наблюдавшиеся между сроками (за 1-3 часа до срока); квадратными скобками обозначены град или гололедные отложения с указанием их диаметра в мм.
Облачность - указаны через наклонную черту общая и нижняя облачность в баллах и высота нижней границы облаков в метрах; квадратными скобками обозначены формы облаков: Ci - перистые, Cs - перисто-слоистые, Cc - перисто-кучевые, Ac - высококучевые, As - высокослоистые, Sc - слоисто-кучевые, Ns - слоисто-дождевые, Cu - кучевые, Cb - кучево-дождевые. Подробнее классификацию облаков см. в Атласе облаков (PDF).
T - Температура воздуха - температура, измеренная на высоте 2 м над землей.
Td - Температура точки росы - температура, при понижении до которой содержащийся в воздухе водяной пар достигнет насыщения.
f - Относительная влажность воздуха - влажноcть воздуха, измеренная на высоте 2 м над землей.
Te - Эффективная температура - температура, которую ощущает одетый по сезону человек в тени. Характеристика душности погоды. При расчете учитывается влияние влажности воздуха и скорости ветра на теплоощущения человека.
Tes - Эффективная температура на солнце - температура, которую ощущает человек, с поправкой на солнечный нагрев. Характеристика знойности погоды. Зависит от высоты солнца над горизонтом, облачности и скорости ветра. Ночью, в пасмурную погоду, а также при ветре 12 м/с и более поправка равна нулю.
P - Атмосферное давление - приведенное к уровню моря атмосферное давление.
Po - Атмосферное давление - измеренное на уровне метеостанции атмосферное давление.
Tmin - Минимальная температура - минимум температуры воздуха на высоте 2 м над землей.
Tmax - Максимальная температура - максимум температуры воздуха на высоте 2 м над землей.
R - Количество осадков - Количество выпавших осадков за период времени, мм. При наведении курсора мыши на число - период времени, за который выпало указанное количество осадков.
R24 - Количество осадков - Количество выпавших осадков за 24 часа, мм.
S - Снежный покров - Высота снежного покрова, см. При наведении курсора мыши на число - состояние снежного покрова и степень покрытия местности в баллах.